Volver al catálogo

STARLINK-1216

ActivoComunicacionesVLEO
NORAD 45185·PAYLOAD·🇺🇸 United States

Lanzado Feb 17, 2020 desde Cape Canaveral Space Force Station

Loading…

Próximos Pases (próximas 24 horas)

TLE

ActualizadoSource: CelesTrak SupGP

Época: Sep 14, 2026, 13:45 UTC

1 45185C 20012H   26257.57340278 -.00019753  00000+0 -41129-3 0  2579
2 45185  53.1530 233.2176 0002964  44.8134  18.7096 15.45022408    14

Sigue STARLINK-1216 en tiempo real con AllMySat

Download on the App Store